TimeMST,TemperatureF,Dew PointF,Humidity,Sea Level PressureIn,VisibilityMPH,Wind Direction,Wind SpeedMPH,Gust SpeedMPH,PrecipitationIn,Events,Conditions,WindDirDegrees,DateUTC
12:53 AM,51.1,30.0,44,30.07,10.0,Calm,Calm,-,N/A,,Clear,0,2013-10-27 07:53:00
1:53 AM,55.0,28.9,37,30.06,10.0,Calm,Calm,-,N/A,,Clear,0,2013-10-27 08:53:00
2:53 AM,51.1,30.0,44,30.05,10.0,Calm,Calm,-,N/A,,Clear,0,2013-10-27 09:53:00
3:53 AM,48.0,30.0,50,30.03,10.0,Calm,Calm,-,N/A,,Clear,0,2013-10-27 10:53:00
4:53 AM,48.0,30.0,50,30.04,5.0,Calm,Calm,-,N/A,,Haze,0,2013-10-27 11:53:00
5:53 AM,48.0,28.9,48,30.05,10.0,WNW,3.5,-,N/A,,Clear,290,2013-10-27 12:53:00
6:53 AM,48.0,28.9,48,30.05,10.0,Calm,Calm,-,N/A,,Clear,0,2013-10-27 13:53:00
7:53 AM,50.0,30.0,46,30.05,10.0,Calm,Calm,-,N/A,,Clear,0,2013-10-27 14:53:00
8:53 AM,55.9,28.9,36,30.04,10.0,Calm,Calm,-,N/A,,Clear,0,2013-10-27 15:53:00
9:53 AM,55.9,28.9,36,30.01,10.0,Calm,Calm,-,N/A,,Clear,0,2013-10-27 16:53:00
10:53 AM,61.0,28.9,30,29.98,10.0,North,3.5,-,N/A,,Clear,360,2013-10-27 17:53:00
11:53 AM,63.0,28.9,28,29.93,10.0,Variable,3.5,-,N/A,,Clear,0,2013-10-27 18:53:00
12:53 PM,68.0,30.9,25,29.86,10.0,Variable,4.6,-,N/A,,Clear,0,2013-10-27 19:53:00
1:53 PM,68.0,32.0,26,29.80,10.0,Variable,4.6,-,N/A,,Clear,0,2013-10-27 20:53:00
2:53 PM,70.0,32.0,25,29.76,10.0,NNE,3.5,-,N/A,,Clear,30,2013-10-27 21:53:00
3:53 PM,70.0,33.1,26,29.74,10.0,NNE,5.8,-,N/A,,Clear,20,2013-10-27 22:53:00
4:53 PM,69.1,33.1,26,29.70,10.0,NNE,3.5,-,N/A,,Clear,20,2013-10-27 23:53:00
5:53 PM,63.0,35.1,35,29.69,10.0,Calm,Calm,-,N/A,,Clear,0,2013-10-28 00:53:00
6:53 PM,66.0,30.0,26,29.66,10.0,SW,4.6,-,N/A,,Mostly Cloudy,230,2013-10-28 01:53:00
7:53 PM,64.9,28.9,26,29.65,10.0,SW,4.6,-,N/A,,Scattered Clouds,230,2013-10-28 02:53:00
8:53 PM,64.9,28.9,26,29.62,10.0,SSW,5.8,-,N/A,,Clear,200,2013-10-28 03:53:00
9:53 PM,62.1,28.9,29,29.63,10.0,SSW,5.8,-,N/A,,Clear,200,2013-10-28 04:53:00
10:53 PM,63.0,26.1,25,29.61,10.0,SSW,6.9,-,N/A,,Clear,200,2013-10-28 05:53:00
11:53 PM,62.1,26.1,25,29.59,10.0,SSW,9.2,-,N/A,,Clear,200,2013-10-28 06:53:00